Weather History for Fort Lauderdale, FL

Change the Weather History Date:

Monday, December 17, 2012

  Actual Average Record
Temperature  
Mean Temperature 72 °F -  
Max Temperature 82 °F 77 °F 87 °F (1965)
Min Temperature 63 °F 56 °F 40 °F (1953)
Cooling Degree Days 8    
Growing Degree Days 22 (Base 50)    
Moisture  
Dew Point 65 °F    
Average Humidity 78    
Maximum Humidity 100    
Minimum Humidity 49    
Precipitation  
Precipitation 0.00 in - - ()
Sea Level Pressure  
Sea Level Pressure 29.97 in    
Wind  
Wind Speed 2 mph (SW)    
Max Wind Speed 12 mph    
Max Gust Speed 18 mph    
Visibility 10 miles    
Events      
Averages and records for this station are not official NWS values.
T = Trace of Precipitation, MM = Missing Value Source: NWS Daily Summary

Daily Weather History Graph

Daily Weather History Graph

Search for Another Location

Airport:

Trip Planner

Search our weather history database for the weather conditions in past years. The results will help you decide how hot, cold, wet, or windy it might be!

Date:

Astronomy

Dec. 17, 2012 Rise Set
Actual Time 7:02 AM EST 5:32 PM EST
Civil Twilight 6:36 AM EST 5:57 PM EST
Nautical Twilight 6:07 AM EST 6:26 PM EST
Astronomical Twilight 5:39 AM EST 6:54 PM EST
Moon 10:32 AM EST (12/17) 10:26 PM EST (12/17)
Length of Visible Light 11h 20m
Length of Day
10h 30m
Waxing Crescent, 24% of the Moon is Illuminated
Dec 17
Waxing Crescent
Dec 20
First Quarter
Dec 28
Full
Jan 4
Last Quarter
Jan 11
New

Hourly Weather History & Observations

Time (EST) Temp. Heat Index Dew Point Humidity Pressure Visibility Wind Dir Wind Speed Gust Speed Precip Events Conditions
12:53 AM 71.1 °F - 66.9 °F 87% 29.99 in 10.0 mi Calm Calm - N/A   Partly Cloudy
1:53 AM 68.0 °F - 66.0 °F 93% 29.99 in 10.0 mi Calm Calm - N/A   Clear
2:53 AM 68.0 °F - 66.0 °F 93% 29.98 in 10.0 mi Calm Calm - N/A   Clear
3:53 AM 66.9 °F - 64.9 °F 93% 29.97 in 10.0 mi Calm Calm - N/A   Clear
4:53 AM 64.9 °F - 64.0 °F 97% 29.97 in 10.0 mi Calm Calm - N/A   Clear
5:53 AM 63.0 °F - 63.0 °F 100% 29.97 in 10.0 mi Calm Calm - N/A   Clear
6:53 AM 64.0 °F - 64.0 °F 100% 29.98 in 10.0 mi Calm Calm - N/A   Clear
7:53 AM 66.0 °F - 64.9 °F 96% 29.98 in 10.0 mi Calm Calm - N/A   Scattered Clouds
8:53 AM 72.0 °F - 64.9 °F 78% 29.99 in 10.0 mi Calm Calm - N/A   Scattered Clouds
9:53 AM 77.0 °F - 66.0 °F 69% 29.99 in 10.0 mi SSW 5.8 mph - N/A   Clear
10:53 AM 80.1 °F 81.7 °F 64.0 °F 58% 29.99 in 10.0 mi SSW 9.2 mph - N/A   Scattered Clouds
11:53 AM 81.0 °F 82.5 °F 64.0 °F 56% 29.96 in 10.0 mi SSW 9.2 mph - N/A   Scattered Clouds
12:53 PM 82.9 °F 83.7 °F 62.1 °F 49% 29.93 in 10.0 mi SW 6.9 mph - N/A   Scattered Clouds
1:53 PM 82.9 °F 83.7 °F 62.1 °F 49% 29.91 in 10.0 mi SW 11.5 mph 18.4 mph N/A   Scattered Clouds
2:53 PM 82.0 °F 83.4 °F 64.0 °F 54% 29.91 in 10.0 mi SW 9.2 mph - N/A   Scattered Clouds
3:53 PM 81.0 °F 82.7 °F 64.9 °F 58% 29.91 in 10.0 mi WSW 9.2 mph - N/A   Scattered Clouds
4:53 PM 80.1 °F 82.1 °F 66.0 °F 62% 29.93 in 10.0 mi WSW 8.1 mph - N/A   Partly Cloudy
7:53 PM 73.9 °F - 64.9 °F 73% 29.97 in 10.0 mi West 6.9 mph - N/A   Clear
8:53 PM 73.0 °F - 66.0 °F 79% 29.98 in 10.0 mi West 4.6 mph - N/A   Clear
9:53 PM 72.0 °F - 66.9 °F 84% 29.98 in 10.0 mi West 3.5 mph - N/A   Clear
10:53 PM 70.0 °F - 66.9 °F 90% 29.99 in 10.0 mi Calm Calm - N/A   Clear
11:53 PM 70.0 °F - 66.9 °F 90% 29.97 in 10.0 mi Calm Calm - N/A   Clear